Weather History for Ohio State University, OH

Change the Weather History Date:

Monday, February 4, 2013

  Actual Average Record
Temperature  
Mean Temperature 22 °F -  
Max Temperature 30 °F 37 °F 55 °F (2008)
Min Temperature 14 °F 22 °F 1 °F (2007)
Degree Days  
Heating Degree Days 43    
Moisture  
Dew Point 21 °F    
Average Humidity 89    
Maximum Humidity 100    
Minimum Humidity 63    
Precipitation  
Precipitation 0.06 in - - ()
Sea Level Pressure  
Sea Level Pressure 29.93 in    
Wind  
Wind Speed 6 mph (South)    
Max Wind Speed 14 mph    
Max Gust Speed -    
Visibility 4 miles    
Events Fog , Snow    
Averages and records for this station are not official NWS values.
T = Trace of Precipitation, MM = Missing Value Source: NWS Daily Summary

Daily Weather History Graph

Daily Weather History Graph

Search for Another Location

Airport:

Trip Planner

Search our weather history database for the weather conditions in past years. The results will help you decide how hot, cold, wet, or windy it might be!

Date:

Astronomy

Feb. 04, 2013 Rise Set
Actual Time 7:37 AM EST 5:55 PM EST
Civil Twilight 7:09 AM EST 6:23 PM EST
Nautical Twilight 6:37 AM EST 6:56 PM EST
Astronomical Twilight 6:05 AM EST 7:27 PM EST
Moon 2:12 AM EST (2/4) 12:18 PM EST (2/4)
Length of Visible Light 11h 14m
Length of Day
10h 17m
Last Quarter, 37% of the Moon is Illuminated
Feb 4
Last Quarter
Feb 10
New
Feb 17
First Quarter
Feb 25
Full
Mar 4
Last Quarter

Hourly Weather History & Observations

Time (EST) Temp. Windchill Dew Point Humidity Pressure Visibility Wind Dir Wind Speed Gust Speed Precip Events Conditions
12:21 AM 15.8 °F 10.2 °F 12.2 °F 86% 30.08 in 9.0 mi WSW 3.5 mph - N/A   Scattered Clouds
12:53 AM 15.1 °F 6.4 °F 10.9 °F 84% 30.12 in 9.0 mi WSW 5.8 mph - N/A   Partly Cloudy
1:51 AM 17.6 °F 10.7 °F 12.2 °F 79% 30.07 in 9.0 mi SSW 4.6 mph - 0.00 in   Overcast
1:53 AM 17.1 °F 10.0 °F 12.0 °F 81% 30.12 in 9.0 mi SSW 4.6 mph - 0.00 in   Overcast
2:09 AM 15.8 °F 7.2 °F 10.4 °F 79% 30.07 in 9.0 mi SSW 5.8 mph - N/A   Scattered Clouds
2:53 AM 18.0 °F 8.7 °F 12.9 °F 81% 30.11 in 8.0 mi SW 6.9 mph - N/A   Overcast
3:53 AM 16.0 °F 7.4 °F 12.9 °F 88% 30.10 in 8.0 mi SW 5.8 mph - N/A   Mostly Cloudy
5:53 AM 14.0 °F 6.5 °F 10.9 °F 88% 30.10 in 7.0 mi WSW 4.6 mph - N/A   Clear
6:53 AM 15.1 °F 5.2 °F 12.9 °F 91% 30.09 in 6.0 mi SSW 6.9 mph - N/A   Overcast
7:53 AM 17.1 °F 8.7 °F 14.0 °F 88% 30.06 in 5.0 mi South 5.8 mph - 0.00 in   Overcast
8:53 AM 19.9 °F 12.1 °F 15.1 °F 81% 30.04 in 7.0 mi SSE 5.8 mph - N/A   Overcast
9:53 AM 19.9 °F 10.1 °F 16.0 °F 85% 30.01 in 7.0 mi SSE 8.1 mph - N/A   Overcast
10:53 AM 23.0 °F 14.7 °F 16.0 °F 74% 30.01 in 10.0 mi SSE 6.9 mph - N/A   Overcast
11:53 AM 26.1 °F 14.5 °F 16.0 °F 66% 29.99 in 10.0 mi South 13.8 mph - N/A   Overcast
12:53 PM 27.0 °F 16.1 °F 16.0 °F 63% 29.94 in 10.0 mi SSE 12.7 mph - N/A   Overcast
1:43 PM 24.8 °F 14.6 °F 19.4 °F 80% 29.88 in 1.0 mi SSE 10.4 mph - 0.00 in Snow Light Snow
1:53 PM 25.0 °F 16.3 °F 21.0 °F 85% 29.91 in 1.0 mi SSE 8.1 mph - 0.00 in Snow Light Snow
2:18 PM 24.8 °F 15.3 °F 21.2 °F 86% 29.86 in 0.5 mi SSE 9.2 mph - 0.01 in Fog , Snow Snow
2:39 PM 24.8 °F 15.3 °F 21.2 °F 86% 29.85 in 0.2 mi SSE 9.2 mph - 0.01 in Fog , Snow Snow
2:53 PM 24.1 °F 14.4 °F 23.0 °F 96% 29.89 in 0.2 mi SSE 9.2 mph - 0.03 in Fog , Snow Snow
3:14 PM 24.8 °F 16.9 °F 23.0 °F 93% 29.85 in 0.5 mi SE 6.9 mph - 0.01 in Fog , Snow Snow
3:24 PM 24.8 °F 17.9 °F 23.0 °F 93% 29.85 in 0.2 mi South 5.8 mph - 0.01 in Fog , Snow Snow
3:31 PM 24.8 °F 16.9 °F 23.0 °F 93% 29.84 in 0.5 mi SE 6.9 mph - 0.01 in Fog , Snow Snow
3:51 PM 24.8 °F 17.9 °F 24.8 °F 100% 29.84 in 0.5 mi South 5.8 mph - 0.02 in Fog , Snow Snow
3:53 PM 25.0 °F 16.3 °F 24.1 °F 96% 29.88 in 0.8 mi SSE 8.1 mph - 0.02 in Snow Light Snow
4:07 PM 26.6 °F 20.0 °F 24.8 °F 93% 29.84 in 1.0 mi SSE 5.8 mph - 0.00 in Snow Light Snow
4:22 PM 26.6 °F 19.1 °F 24.8 °F 93% 29.84 in 0.8 mi SE 6.9 mph - 0.01 in Snow Light Snow
4:32 PM 26.6 °F 19.1 °F 24.8 °F 93% 29.84 in 1.2 mi SE 6.9 mph - 0.01 in Snow Light Snow
4:50 PM 26.6 °F 20.0 °F 24.8 °F 93% 29.84 in 1.2 mi SSE 5.8 mph - 0.01 in Snow Light Snow
4:53 PM 26.1 °F 19.4 °F 25.0 °F 96% 29.88 in 1.2 mi SSE 5.8 mph - 0.01 in Snow Light Snow
5:07 PM 26.6 °F 20.0 °F 24.8 °F 93% 29.83 in 1.0 mi South 5.8 mph - 0.00 in Snow Light Snow
5:24 PM 26.6 °F 18.2 °F 24.8 °F 93% 29.83 in 2.0 mi South 8.1 mph - 0.00 in Snow Light Snow
5:35 PM 26.6 °F 20.0 °F 24.8 °F 93% 29.83 in 4.0 mi South 5.8 mph - 0.00 in   Overcast
5:46 PM 26.6 °F 20.0 °F 24.8 °F 93% 29.83 in 4.0 mi SSE 5.8 mph - 0.00 in   Overcast
5:53 PM 27.0 °F 19.5 °F 25.0 °F 92% 29.87 in 5.0 mi South 6.9 mph - 0.00 in   Overcast
7:14 PM 26.6 °F 21.2 °F 26.6 °F 100% 29.84 in 6.0 mi South 4.6 mph - N/A   Overcast
7:53 PM 28.0 °F 20.8 °F 26.1 °F 92% 29.86 in 6.0 mi South 6.9 mph - N/A   Overcast
8:00 PM 28.4 °F 21.2 °F 26.6 °F 93% 29.82 in 6.0 mi South 6.9 mph - N/A   Overcast
8:53 PM 28.0 °F 22.8 °F 27.0 °F 96% 29.88 in 5.0 mi SW 4.6 mph - N/A   Overcast
9:49 PM 28.4 °F - 26.6 °F 93% 29.85 in 4.0 mi Calm Calm - N/A   Overcast
9:53 PM 28.9 °F - 27.0 °F 92% 29.89 in 4.0 mi Calm Calm - N/A   Overcast
10:53 PM 30.0 °F - 28.0 °F 92% 29.88 in 4.0 mi Calm Calm - N/A   Overcast
11:22 PM 28.4 °F 24.6 °F 28.4 °F 100% 29.85 in 4.0 mi NW 3.5 mph - N/A   Overcast
11:53 PM 28.9 °F - 28.0 °F 96% 29.87 in 4.0 mi Calm Calm - N/A   Overcast